Wind_Speed
29 35 36 23 25 19 21 22 23 22 20 24 30 27 26 30 32 28 25 26 25 29 29 32 36 30 28 27 26 28 26 24 23 13 19 23 24 28 19 20 16 13 9 3
38 39 28 27 27 27 27 26 26 22 22 33 32 30 29 33 28 23 24 24 26 26 29 32 29 26 26 24 24 25 22 20 18 16 21 21 19 22 24 18 17 13 13 2
38 29 27 29 26 29 28 25 22 21 23 31 30 26 20 20 25 23 24 23 25 26 26 29 25 25 22 23 22 23 20 19 16 17 21 19 19 19 20 14 14 14 12 5
34 32 29 30 32 27 30 22 23 26 26 26 20 24 20 18 23 20 21 25 21 22 25 22 22 22 20 21 21 21 19 17 15 15 19 19 22 19 16 15 15 13 14 9
28 32 30 33 28 27 26 23 24 28 30 27 22 23 13 17 18 12 13 16 20 23 19 19 20 19 19 20 20 19 17 16 14 14 18 18 18 18 15 12 13 14 16 9
31 28 29 29 24 29 29 29 27 26 23 26 19 20 13 11 17 16 17 22 22 21 18 19 18 17 19 18 19 17 15 15 13 12 15 18 19 19 15 14 10 10 11 9
35 33 30 31 35 36 34 30 27 24 20 20 13 16 17 16 20 20 20 21 21 20 17 15 14 16 19 15 17 16 13 14 12 11 13 15 22 14 18 13 15 13 13 8
35 38 37 33 35 32 33 31 28 19 13 13 21 25 10 14 23 19 17 19 20 15 12 13 12 15 16 14 15 14 13 12 11 9 11 14 20 14 19 15 14 14 16 13
37 33 29 38 31 34 33 32 22 23 25 17 13 14 28 24 22 16 14 16 16 12 11 11 11 14 12 12 13 13 13 13 10 7 9 12 14 13 13 18 19 9 11 12
39 34 33 32 33 33 36 26 24 24 24 21 17 15 14 25 7 18 15 15 13 13 12 11 10 13 9 11 12 13 13 12 8 6 7 9 12 12 12 16 20 15 7 11
43 38 34 34 42 33 35 34 29 23 22 15 13 13 21 22 22 15 16 13 12 12 14 10 8 11 7 9 11 12 12 10 9 7 4 8 7 10 12 12 13 15 14 10
38 49 40 41 37 34 35 34 30 28 23 21 18 12 28 28 26 16 11 15 13 13 16 9 6 8 6 8 11 12 10 10 11 6 4 7 7 9 12 12 11 12 13 11
41 51 45 37 42 44 42 36 33 34 27 23 19 13 21 25 19 14 14 15 12 8 11 5 5 6 5 6 9 11 10 11 10 8 10 9 8 8 9 12 12 12 16 13
45 44 45 48 42 41 44 40 38 33 33 28 25 18 24 27 21 14 15 14 12 9 9 5 4 4 5 6 7 9 8 9 11 10 12 11 10 10 11 13 14 13 16 16
52 52 49 42 34 38 40 39 38 38 30 30 20 19 20 22 23 18 18 12 12 10 11 7 4 4 4 5 6 7 6 6 8 9 10 10 10 10 11 11 16 19 17 18
56 52 50 47 44 36 45 45 42 39 34 34 28 23 17 22 23 18 17 16 12 12 12 10 6 3 4 4 5 5 4 4 5 6 7 8 8 10 10 11 11 12 14 15
59 54 53 53 49 47 42 48 46 42 38 34 32 19 21 24 21 20 20 18 13 14 14 13 9 4 3 4 4 4 2 2 4 5 5 8 9 9 10 12 12 13 19 19
62 57 55 54 50 45 54 46 44 45 42 36 35 24 18 20 24 24 23 21 15 14 15 15 10 7 6 4 4 5 3 0 2 5 5 7 9 10 10 12 14 15 15 18
69 61 59 58 46 44 52 52 48 46 43 41 35 24 20 22 24 24 23 24 17 15 17 14 13 10 6 5 6 5 6 3 2 1 3 6 10 12 12 13 15 16 15 14
66 66 59 57 45 47 53 51 51 45 45 39 34 30 23 25 19 19 20 20 21 17 19 15 14 13 12 9 7 8 9 6 4 4 4 5 8 11 13 13 12 11 10 10
70 69 66 59 48 46 41 33 54 50 42 37 36 27 25 27 14 19 22 24 25 20 21 20 15 14 16 13 12 9 11 10 6 5 7 6 6 8 11 12 10 7 5 3
71 70 67 53 40 48 45 40 50 41 45 41 36 27 30 25 23 23 24 21 21 18 19 15 14 15 17 15 15 12 12 13 10 7 6 7 7 9 9 8 8 7 5 3
57 68 63 49 45 41 49 42 47 54 40 41 32 30 32 26 24 22 17 19 18 19 20 18 14 12 19 20 17 17 15 13 14 13 10 9 9 9 8 7 6 6 5 5
43 46 56 51 52 50 53 59 53 53 48 34 33 34 32 26 27 25 22 19 19 20 20 22 20 16 17 23 22 22 17 16 17 18 16 14 12 12 12 11 10 9 8 8
49 51 53 54 46 45 45 60 56 45 50 50 40 34 32 30 27 23 23 21 21 21 24 26 23 20 20 22 29 27 20 18 18 20 22 19 18 16 16 15 15 14 13 13
54 58 59 58 54 64 54 63 56 56 55 51 41 37 37 33 29 27 26 24 23 20 22 26 23 25 21 19 30 28 23 20 23 23 22 24 25 23 22 21 21 21 21 20
Wind_Direction
245 245 246 262 266 269 256 248 252 265 255 260 266 280 283 290 302 301 299 304 308 314 316 317 318 318 319 320 322 325 334 336 338 334 349 343 341 346 357 353 7 6 352 289
240 246 255 258 257 255 249 245 251 256 260 265 269 285 291 292 294 296 300 302 308 310 313 313 315 314 319 320 321 328 333 339 344 348 354 351 344 340 350 6 10 6 7 243
247 252 247 254 250 251 251 251 253 254 254 268 284 297 305 294 305 302 300 304 307 305 304 309 312 314 319 322 320 328 335 333 337 347 0 360 352 353 358 17 14 17 21 8
239 242 238 240 243 245 246 250 248 252 254 264 272 290 288 302 299 296 302 309 304 304 307 312 315 318 316 323 322 327 334 332 333 347 8 359 349 346 352 16 17 16 3 27
231 236 234 238 244 246 254 247 248 259 257 267 274 281 292 301 299 293 295 290 308 307 303 314 320 318 319 323 324 326 340 337 334 346 9 4 4 4 6 5 23 22 25 37
231 233 230 240 242 239 245 239 240 243 258 269 278 275 289 278 262 271 290 293 303 301 299 313 318 316 324 321 324 329 348 340 336 351 16 20 11 14 8 18 34 35 50 58
226 228 227 228 226 230 231 232 238 252 256 277 285 267 274 247 257 274 290 286 296 297 300 312 319 320 330 319 326 332 345 340 334 347 14 18 14 35 30 48 66 62 63 88
233 228 224 231 231 234 238 240 240 240 255 281 253 288 293 273 268 293 290 284 291 294 296 317 317 327 330 320 331 337 353 343 339 336 10 21 23 48 52 54 39 60 65 109
231 235 234 239 236 231 236 242 247 226 222 234 256 287 301 296 303 319 285 293 289 285 303 313 316 335 329 323 335 340 352 343 340 331 7 25 28 36 47 48 37 27 59 66
231 232 230 232 229 227 230 245 229 234 240 241 252 270 258 279 272 274 290 286 288 282 292 306 314 337 330 331 340 347 348 347 353 342 9 36 28 38 52 53 41 47 75 68
220 229 226 226 232 230 233 226 235 229 231 239 247 256 250 253 264 260 280 291 286 291 298 298 313 335 333 337 353 356 6 12 354 344 21 35 26 36 38 48 59 44 53 85
224 226 216 233 240 236 240 240 240 244 234 228 221 238 255 267 274 277 260 298 298 279 302 288 314 331 330 345 357 2 12 2 2 23 38 43 31 34 50 67 66 66 53 85
219 222 220 217 228 232 228 225 232 238 235 229 236 237 262 276 279 278 259 291 294 287 289 259 316 329 321 355 359 4 16 25 26 53 64 65 44 48 61 70 91 77 57 85
223 229 229 229 239 234 231 231 237 237 242 237 233 217 263 276 274 263 261 275 281 278 264 254 304 323 315 344 2 6 23 35 39 69 78 68 65 72 76 75 101 94 79 79
221 221 228 224 222 235 237 236 239 244 245 246 245 240 225 244 272 264 258 251 270 270 258 249 277 319 317 327 357 8 27 31 44 66 89 85 79 83 83 83 99 106 94 88
222 218 222 220 220 221 239 234 232 235 240 246 241 230 231 238 231 257 246 249 250 255 250 240 247 285 319 314 341 6 20 43 45 53 71 93 103 91 98 101 102 121 109 103
220 218 216 222 223 222 222 235 232 235 236 240 243 238 225 238 246 239 241 255 256 250 240 235 236 257 302 303 316 324 14 41 65 70 78 94 107 114 110 105 102 100 107 114
218 216 220 226 224 221 226 231 236 236 237 240 246 240 238 239 238 250 250 254 259 270 229 225 235 239 246 264 273 297 296 210 86 87 90 100 105 113 115 112 110 107 104 106
217 216 220 222 222 225 227 227 227 233 234 237 244 236 228 238 241 246 251 249 248 253 235 225 219 232 246 246 249 265 272 261 231 162 111 126 122 116 116 117 119 117 114 110
217 220 215 218 219 223 226 232 232 232 236 234 234 234 229 237 235 231 245 235 234 240 242 233 227 232 232 224 228 242 253 260 250 219 163 145 149 140 133 129 126 123 119 119
215 217 220 219 223 224 225 218 232 229 234 235 232 230 227 232 219 214 224 227 226 235 238 233 232 227 222 211 219 223 237 245 244 214 213 185 167 166 161 156 153 147 142 133
217 217 220 218 215 218 222 211 231 229 227 233 228 226 229 223 221 226 224 228 219 233 233 225 224 228 216 210 216 215 227 237 231 223 208 210 195 194 193 187 184 184 182 179
221 218 219 215 215 219 218 223 223 232 227 226 221 223 228 221 224 232 227 234 227 226 238 229 218 209 206 214 213 214 221 225 228 231 222 217 218 207 206 209 209 200 187 188
195 207 217 214 206 216 220 222 223 227 226 221 212 218 228 227 222 232 230 228 228 228 232 234 233 234 219 220 218 220 217 222 223 231 233 230 227 227 220 217 221 224 229 238
197 192 195 204 206 208 219 225 224 224 226 223 223 222 226 229 229 226 221 218 225 232 237 240 243 238 223 226 221 225 222 228 229 228 233 236 237 234 230 228 232 237 246 258
194 190 192 199 205 210 213 223 227 227 230 231 222 221 226 229 223 219 219 214 217 225 228 231 241 233 228 234 221 223 217 225 234 235 231 233 236 239 240 243 247 252 258 262
Height
5801 5799 5800 5811 5811 5814 5815 5819 5822 5822 5819 5816 5812 5810 5809 5807 5805 5804 5801 5798 5795 5792 5788 5784 5780 5776 5773 5768 5764 5759 5754 5749 5743 5739 5734 5728 5723 5716 5711 5705 5699 5694 5690 5688
5790 5790 5802 5803 5804 5806 5808 5810 5813 5815 5814 5810 5807 5806 5806 5803 5801 5799 5796 5793 5791 5789 5785 5781 5778 5774 5770 5766 5762 5757 5753 5749 5744 5739 5733 5728 5723 5718 5711 5706 5701 5696 5692 5690
5784 5793 5795 5795 5798 5798 5801 5804 5807 5809 5811 5806 5802 5801 5801 5800 5796 5795 5792 5790 5787 5784 5781 5778 5775 5771 5768 5763 5760 5755 5752 5747 5744 5739 5733 5728 5724 5719 5713 5708 5703 5698 5693 5691
5778 5783 5786 5788 5790 5795 5796 5801 5801 5801 5801 5802 5803 5798 5797 5796 5793 5789 5787 5783 5783 5780 5778 5776 5772 5768 5765 5761 5758 5754 5751 5747 5743 5739 5734 5730 5725 5720 5715 5711 5706 5700 5695 5692
5773 5774 5779 5781 5788 5790 5794 5795 5797 5796 5793 5794 5796 5794 5796 5795 5791 5788 5785 5782 5779 5777 5775 5773 5769 5766 5763 5759 5756 5753 5750 5746 5743 5738 5735 5731 5727 5722 5717 5713 5709 5702 5698 5695
5764 5769 5772 5777 5781 5784 5788 5789 5790 5792 5791 5787 5790 5792 5793 5794 5790 5784 5782 5778 5776 5773 5772 5770 5766 5764 5761 5758 5755 5752 5748 5746 5742 5739 5736 5733 5729 5724 5719 5716 5711 5707 5702 5699
5757 5761 5766 5771 5774 5778 5779 5782 5784 5785 5786 5784 5788 5788 5788 5785 5782 5778 5778 5775 5772 5770 5770 5767 5764 5762 5760 5757 5754 5751 5748 5745 5742 5740 5737 5735 5731 5727 5723 5719 5715 5710 5706 5703
5751 5753 5757 5764 5768 5772 5772 5775 5779 5782 5786 5789 5784 5783 5784 5778 5773 5774 5772 5771 5769 5769 5767 5765 5762 5761 5758 5756 5753 5750 5748 5745 5742 5740 5738 5736 5734 5731 5728 5725 5721 5716 5711 5707
5744 5749 5756 5757 5761 5766 5767 5766 5776 5776 5779 5782 5783 5782 5776 5772 5771 5769 5767 5767 5767 5767 5765 5762 5761 5759 5757 5755 5753 5750 5747 5745 5742 5741 5739 5737 5736 5734 5732 5729 5724 5720 5718 5713
5739 5744 5748 5751 5754 5757 5760 5766 5766 5769 5772 5776 5781 5780 5779 5771 5771 5768 5765 5764 5764 5764 5763 5761 5759 5758 5756 5755 5753 5750 5747 5744 5742 5741 5740 5738 5738 5736 5735 5732 5728 5725 5722 5720
5732 5735 5742 5743 5739 5750 5754 5756 5759 5765 5769 5773 5776 5778 5770 5769 5767 5766 5765 5762 5762 5761 5760 5759 5758 5757 5756 5755 5753 5750 5747 5745 5742 5741 5741 5740 5740 5739 5737 5735 5732 5730 5727 5725
5722 5724 5732 5734 5740 5744 5747 5751 5755 5756 5762 5765 5771 5775 5762 5764 5763 5762 5764 5759 5760 5759 5757 5757 5757 5757 5756 5755 5754 5751 5748 5746 5743 5742 5742 5741 5741 5741 5740 5738 5736 5733 5731 5728
5710 5711 5722 5731 5730 5732 5735 5742 5748 5751 5756 5760 5764 5767 5762 5758 5758 5759 5759 5757 5757 5756 5755 5756 5756 5756 5756 5755 5755 5752 5750 5748 5745 5744 5742 5743 5744 5743 5743 5742 5740 5738 5736 5734
5698 5704 5711 5715 5724 5728 5731 5735 5740 5745 5748 5751 5755 5762 5758 5756 5755 5755 5755 5755 5756 5755 5755 5756 5756 5756 5756 5756 5755 5754 5752 5751 5749 5747 5746 5745 5746 5746 5746 5746 5745 5744 5742 5740
5683 5691 5700 5711 5719 5718 5723 5729 5734 5737 5744 5744 5751 5753 5756 5756 5753 5753 5753 5753 5754 5754 5754 5756 5756 5756 5756 5756 5756 5756 5754 5754 5752 5751 5750 5748 5749 5750 5750 5750 5750 5750 5749 5747
5672 5683 5690 5699 5706 5713 5713 5719 5725 5731 5736 5738 5743 5747 5751 5751 5750 5751 5751 5749 5751 5752 5752 5754 5755 5756 5756 5756 5757 5757 5757 5756 5755 5754 5754 5752 5752 5752 5753 5754 5754 5755 5755 5754
5661 5675 5679 5686 5696 5704 5706 5710 5719 5725 5730 5734 5735 5743 5743 5744 5745 5747 5748 5747 5749 5750 5750 5752 5754 5756 5757 5757 5757 5758 5758 5758 5757 5757 5757 5756 5755 5755 5757 5757 5758 5759 5760 5760
5650 5662 5671 5680 5686 5684 5699 5709 5712 5716 5723 5728 5729 5735 5737 5739 5740 5741 5743 5745 5747 5748 5748 5750 5753 5755 5756 5757 5757 5758 5758 5759 5759 5759 5759 5759 5759 5759 5759 5760 5762 5763 5764 5766
5638 5651 5659 5667 5671 5684 5693 5695 5702 5708 5716 5720 5723 5730 5732 5733 5734 5737 5738 5741 5743 5744 5747 5747 5749 5752 5755 5756 5757 5758 5759 5759 5760 5761 5761 5762 5762 5763 5763 5764 5766 5768 5769 5770
5628 5637 5649 5658 5664 5670 5684 5689 5696 5703 5703 5712 5718 5721 5726 5727 5731 5734 5733 5736 5738 5741 5743 5746 5747 5749 5752 5754 5756 5757 5759 5760 5760 5762 5763 5763 5764 5765 5766 5767 5768 5770 5772 5773
5613 5623 5633 5645 5654 5667 5676 5682 5682 5690 5704 5706 5710 5716 5719 5721 5728 5729 5729 5731 5733 5737 5738 5741 5743 5746 5748 5751 5754 5756 5758 5759 5761 5762 5763 5764 5765 5767 5768 5769 5770 5771 5772 5774
5603 5614 5622 5638 5646 5659 5666 5673 5673 5685 5691 5696 5703 5709 5712 5718 5720 5720 5723 5725 5729 5733 5736 5739 5740 5742 5745 5749 5752 5754 5756 5758 5761 5762 5764 5765 5766 5767 5769 5770 5771 5772 5773 5774
5592 5604 5618 5631 5642 5652 5657 5661 5667 5672 5683 5688 5697 5702 5705 5711 5714 5716 5719 5722 5724 5727 5732 5735 5737 5739 5742 5746 5748 5751 5753 5756 5759 5761 5763 5765 5766 5767 5769 5770 5771 5772 5773 5775
5579 5595 5609 5622 5632 5636 5642 5648 5655 5662 5673 5682 5688 5693 5698 5704 5708 5711 5715 5717 5719 5722 5726 5730 5733 5737 5740 5742 5745 5746 5750 5753 5756 5758 5761 5763 5765 5767 5768 5769 5771 5772 5773 5774
5571 5584 5592 5607 5619 5627 5632 5638 5646 5655 5662 5670 5682 5688 5691 5696 5701 5705 5709 5712 5715 5717 5721 5725 5728 5732 5735 5737 5739 5741 5747 5750 5753 5755 5758 5761 5763 5765 5766 5768 5769 5770 5771 5773
5557 5568 5578 5594 5606 5611 5619 5626 5634 5645 5652 5662 5673 5679 5685 5690 5694 5699 5703 5706 5709 5712 5715 5719 5722 5725 5730 5732 5734 5737 5742 5745 5748 5751 5753 5756 5759 5761 5762 5764 5765 5767 5768 5769